Find Starlink 33708

NORAD ID: 63405 Int'l Des: 2025-065 Owner: SPXS Country: US Constellation: starlink operational
LEOCIRCULAR

現在のビュー

3D地球を読み込み中...

About Starlink 33708

Starlink 33708 (NORAD 63405) is a starlink constellation satellite (v2 mini) launched Mar 31, 2025 by SPXS of US. It operates in LEO, CIRCULAR orbit with a mass of 575.00 kg.

次回通過

Passes for default location (London). Set your location on the main map for personalized predictions.

高度履歴

Loading altitude history...

軌道要素

1 63405U 25065G 26228.51094822 .00006713 00000-0 25321-3 0 9990
2 63405 43.0003 284.3977 0001273 273.9634 86.1072 15.27584794 77287
Epoch: Aug 16, 2026 • Age: 20 hours

現在のステータス

高度 484.7 km
遠地点 / 近地点 N/A
速度 7.62 km/s
衛星直下点 -11.93°S, 172.05°E
打ち上げ日 Mar 31, 2025
運用期間 1.3 years
タイプ internet

技術仕様

分類 Payload
質量 575.00 kg
乾燥質量 530.00 kg
総質量 575.00 kg
長さ 0.30 m
直径 4.10 m
スパン 29.00 m
形状 Box + pan
製造者 SPXS
バスタイプ Starlink V2MO
フェーズステータス In Orbit
所有者/国 SPXS/US

Most Searched